Overview Statistics Trail Chart Weather Telemetry Raw packets
 

This is the latest recevied weather packets stored in our database for station/object SR8WXL-13. If no packets are shown the sender has not sent any weather packets the latest 10 day(s).

<< 5 6 7 8 9 10 11 >>
Time Temp. Humidity Pressure Rain* Wind** Luminosity Snow
1788514294 21.11° C 69% 1031.3 hPa 0 mm - - -
1788513577 21.11° C 69% 1030.9 hPa 0 mm - - -
1788512781 20° C 70% 1031.1 hPa 0 mm - - -
1788511940 21.11° C 70% 1031.4 hPa 0 mm - - -
1788511135 21.11° C 70% 1031.8 hPa 0 mm - - -
1788510269 20° C 74% 1031.8 hPa 0 mm - - -
1788509436 18.89° C 72% 1031.9 hPa 0 mm - - -
1788508687 18.89° C 72% 1032 hPa 0 mm - - -
1788507956 17.78° C 75% 1032.1 hPa 0 mm - - -
1788507082 17.78° C 77% 1031.9 hPa 0 mm - - -
1788506217 17.78° C 77% 1032.1 hPa 0 mm - - -
1788505444 17.22° C 78% 1031.8 hPa 0 mm - - -
1788504633 17.22° C 79% 1032 hPa 0 mm - - -
1788503814 16.11° C 80% 1031.7 hPa 0 mm - - -
1788503018 16.11° C 80% 1031.6 hPa 0 mm - - -
1788502147 16.11° C 80% 1031.7 hPa 0 mm - - -
1788501373 16.11° C 80% 1031.7 hPa 0 mm - - -
1788500604 16.11° C 81% 1031.4 hPa 0 mm - - -
1788499808 16.11° C 80% 1031.3 hPa 0 mm - - -
1788498939 16.11° C 79% 1031.6 hPa 0 mm - - -
1788498176 16.11° C 81% 1031.4 hPa 0 mm - - -
1788497350 15° C 84% 1031 hPa 0 mm - - -
1788496488 15° C 85% 1031 hPa 0 mm - - -
1788495613 13.89° C 87% 1031.2 hPa 0 mm - - -
1788494838 13.89° C 88% 1031.4 hPa 0 mm - - -

* Rain latest hour (hover to see other rain measurements)
** Current wind speed in m/s (hover to see current wind gust speed)